weather.gov     
National Weather Service

Regional Weather Roundup
NWS Homepage
This page is being discontinued on March 12, 2014.
The same data is available at this site. Please update your bookmarks.
Thank you, and we apologize for the inconvenience.
Please send an email to SR-SRH.Webmaster@noaa.gov with any concerns.


Current Version
Previous Version:    01  02  03  04  05  06  07  08  09  10  11  12  13  14  15  16  17  18  19  20  21  22  23  24  25  26  27  28  29  30  
   31  32  33  34  35  36  37  38  39  40  41  42  43  44  45  46  47  48  49  50  51  52  53  54  
[Printable]
300
ASUS41 KGYX 250110
RWRGYX
WEATHER ROUNDUP FOR MAINE AND NEW HAMPSHIRE
NATIONAL WEATHER SERVICE GRAY ME
900 PM EDT THU APR 24 2014

MEZ002-005-006-010-012-015-018-020-021-024-026-027-029-250200-
MAINE

CITY           SKY/WX    TMP DP  RH WIND       PRES   REMARKS
PORTLAND       CLOUDY    48  28  46 NW22G33   29.84R
SANFORD        CLEAR     46 N/A N/A N8G21     29.85R
BAR HARBOR     CLOUDY    37  36  93 N13G21    29.78R
WISCASSET      CLOUDY    47  32  56 VRB6      29.82R
ROCKLAND       MOCLDY    41  34  75 N9G18     29.81R
FRYEBURG       CLEAR     47  25  42 N12G24    29.87R
LEWISTONAUBURN CLOUDY    46  28  49 N17G28    29.84R
AUGUSTA        CLOUDY    45  31  58 N20G28    29.83R
WATERVILLE     CLOUDY    45  34  65 N20G26    29.79R
BANGOR         LGT RAIN  39  34  82 N17G24    29.83R
GREENVILLE       N/A     36  31  82 NW22G36   29.79R
MILLINOCKET    CLOUDY    39  34  82 N8        29.85R
HOULTON        LGT SNOW  33  32  96 N10       29.81R FOG
PRESQUE ISLE   CLOUDY    34  28  80 N10       29.86R
FRENCHVILLE    LGT SNOW  31  29  92 NW14      29.85R FOG
CARIBOU        LGT SNOW  33  32  96 N5        29.84R FOG
$$

NHZ002-005-008-009-011-012-014-250200-
NEW HAMPSHIRE

CITY           SKY/WX    TMP DP  RH WIND       PRES   REMARKS
PORTSMOUTH     PTCLDY    47  26  43 NW18      29.84R
ROCHESTER      MOCLDY    46  26  45 NW9       29.85R
NASHUA         PTCLDY    50  25  38 N13       29.89R
MANCHESTER     PTCLDY    51  25  36 N22G29    29.87R
CONCORD        PTCLDY    48  26  42 N12       29.88R
LACONIA        CLEAR     48  25  40 N12G20    29.88R
PLYMOUTH         N/A     48  25  40 NW14G25   29.89R
BERLIN         CLOUDY    44  28  53 NW8       29.89R
WHITEFIELD     CLOUDY    44  27  51 N6        29.91R
JAFFREY        PTCLDY    46  22  38 NW9G21    29.91R
LEBANON        CLOUDY    49  22  34 NW10      29.92R
MT WASHINGTON  FOG       18  18 100 N72G81      N/A  VSB 0   WCI  -9
$$

VTZ005-007-008-250200-
VERMONT

CITY           SKY/WX    TMP DP  RH WIND       PRES   REMARKS
ST JOHNSBURY     N/A     47  26  44 MISG      29.91R
MONTPELIER     MOCLDY    44  24  45 NW13G22   29.97R
BURLINGTON     MOCLDY    47  25  42 NW10      29.99R
$$

MAZ007-012-024-CTZ003-RIZ002-NYZ038-NYZ072-250200-
SOUTHERN NEW ENGLAND AND NY

CITY           SKY/WX    TMP DP  RH WIND       PRES   REMARKS
BOSTON         PTCLDY    52  25  35 NW12G23   29.87R
WORCESTER      CLEAR     47  19  33 NW14      29.89R
NANTUCKET      CLEAR     49  32  52 N17G26    29.83R
PROVIDENCE     CLEAR     53  20  27 NW10G21   29.88R
HARTFORD       CLEAR     53  12  19 NW15      29.91R
ALBANY         CLEAR     49  15  25 N9        29.99R
NEW YORK CITY  PTCLDY    56  13  18 NW12      29.97R
$$

ANZ081-ANZ082-ANZ150-NHZ014-MEZ023>029-250200-
COASTAL MARINE OBSERVATIONS

STATION/POSITION TIME  TEMP    WIND        PRES    WAVE
                       AIR SEA DIR/SP/G            HT/PER
                 (UTC) (F)     (DEG/KT/KT) (MB)    (FT/S)
MOUNT DESERT ROC 0100   40                 1006.8R
MATINICUS ROCK   0000   42      10/ 23/ 24 1007.0R
PORTLAND WX BUOY 0100   47 41  340/ 21/ 25 1009.2R   3/ 4
WELLS            0100   49 40  360/ 18/ 24 1009.5R
ISLE OF SHOALS   0000   50     340/ 29/ 35 1008.6R
JEFFREYS LEDGE   0100      42                N/A     7/ 6
CASHES LEDGE BUO 0100   45 41  350/ 21/ 27 1007.3R   7/ 6
$$

.............KEY..............
   WCI - WIND CHILL
   TC  - TEMPERATURE IN CELSIUS
   VSB - VISIBILITY IN MILES
   HX  - HEAT INDEX
   FAIR- INDICATES FEW OR NO CLOUDS BELOW 12,000 FT, WITH NO
         SIGNIFICANT WEATHER AND/OR OBSTRUCTIONS TO VISIBILITY.






U.S. Dept. of Commerce
NOAA National Weather Service
1325 East West Highway
Silver Spring, MD 20910
E-mail: w-nws.webmaster@noaa.gov
Page last modified: May 16, 2007
NATIONAL WEATHER SERVICE: for Safety, for Work, for Fun - FOR LIFE